Temp
-11 -11 -11 -11 -11 -12 -12 -12 -12 -12 -12 -12 -12 -12 -12 -12 -13 -13 -13 -13 -13 -13 -13 -13 -13 -13 -12 -12 -12 -12 -12 -12
-13 -12 -10 -11 -12 -12 -12 -13 -13 -13 -12 -12 -12 -12 -12 -13 -13 -13 -13 -13 -13 -13 -13 -13 -13 -13 -12 -12 -12 -12 -12 -12
-14 -12 -11 -10 -11 -12 -13 -13 -14 -14 -13 -13 -13 -12 -12 -13 -13 -13 -13 -13 -14 -14 -13 -13 -13 -13 -13 -13 -13 -13 -13 -13
-14 -13 -11 -10 -11 -12 -13 -13 -14 -14 -13 -13 -12 -13 -13 -13 -13 -13 -13 -13 -13 -14 -13 -13 -14 -14 -13 -13 -13 -14 -13 -13
-13 -12 -12 -12 -11 -12 -13 -13 -14 -14 -13 -13 -13 -13 -13 -13 -13 -13 -13 -13 -13 -13 -13 -13 -13 -13 -13 -14 -14 -14 -14 -14
-13 -12 -13 -13 -13 -13 -13 -14 -14 -14 -14 -13 -13 -13 -13 -13 -13 -13 -13 -13 -13 -13 -13 -13 -14 -14 -14 -14 -14 -14 -15 -15
-14 -13 -13 -14 -14 -13 -13 -14 -14 -14 -15 -14 -14 -14 -14 -13 -14 -14 -14 -14 -14 -14 -14 -14 -13 -14 -15 -15 -15 -14 -14 -15
-14 -14 -14 -14 -14 -14 -14 -15 -15 -15 -15 -15 -15 -15 -14 -14 -14 -14 -14 -14 -14 -15 -15 -15 -16 -15 -15 -15 -15 -15 -15 -15
-14 -14 -14 -15 -15 -15 -15 -15 -16 -16 -16 -15 -16 -16 -15 -15 -15 -15 -15 -15 -15 -16 -16 -16 -16 -17 -17 -16 -16 -16 -16 -16
-15 -15 -15 -15 -15 -15 -15 -16 -17 -17 -16 -16 -16 -16 -16 -15 -15 -15 -15 -15 -17 -17 -17 -17 -17 -17 -18 -18 -17 -17 -17 -17
-14 -15 -15 -16 -16 -16 -16 -17 -17 -18 -17 -17 -17 -17 -16 -16 -16 -16 -16 -16 -16 -17 -18 -18 -18 -18 -17 -17 -18 -17 -17 -17
-15 -16 -16 -17 -17 -17 -18 -18 -17 -18 -18 -18 -18 -18 -18 -17 -17 -16 -16 -17 -18 -17 -17 -17 -17 -17 -17 -17 -17 -17 -17 -17
-17 -17 -16 -17 -17 -18 -19 -19 -18 -18 -18 -18 -18 -18 -18 -18 -18 -18 -17 -18 -18 -18 -17 -17 -17 -17 -17 -17 -17 -18 -18 -18
-18 -17 -16 -16 -17 -18 -19 -18 -18 -19 -19 -19 -19 -19 -19 -19 -18 -18 -18 -18 -18 -18 -18 -18 -18 -18 -18 -18 -18 -18 -18 -18
-20 -18 -18 -18 -19 -19 -19 -19 -19 -19 -19 -19 -19 -19 -19 -19 -19 -19 -19 -19 -19 -18 -18 -18 -19 -19 -18 -18 -18 -18 -18 -18
-20 -20 -20 -20 -20 -19 -20 -20 -20 -20 -19 -19 -19 -19 -19 -20 -21 -21 -21 -20 -20 -20 -19 -20 -20 -19 -19 -18 -18 -19 -19 -19
-20 -21 -21 -21 -20 -20 -20 -20 -20 -21 -23 -23 -23 -23 -23 -23 -23 -23 -22 -22 -20 -21 -21 -21 -19 -19 -19 -19 -19 -19 -20 -20
-22 -22 -22 -22 -22 -23 -23 -23 -23 -23 -23 -23 -23 -22 -22 -23 -23 -22 -22 -22 -22 -21 -21 -20 -20 -19 -20 -20 -20 -21 -21 -21
-22 -23 -23 -24 -23 -24 -24 -24 -24 -24 -24 -23 -23 -23 -22 -22 -22 -22 -22 -22 -21 -21 -21 -21 -21 -20 -20 -20 -21 -22 -22 -21
Height
5797 5796 5799 5800 5801 5802 5803 5804 5803 5802 5802 5802 5800 5800 5801 5803 5803 5801 5800 5799 5799 5797 5795 5794 5794 5793 5793 5792 5792 5792 5792 5792
5786 5784 5784 5791 5793 5794 5795 5795 5794 5793 5793 5791 5790 5790 5792 5794 5794 5792 5792 5791 5791 5789 5787 5787 5787 5786 5786 5785 5784 5784 5783 5783
5777 5775 5771 5774 5784 5784 5785 5785 5784 5782 5781 5780 5780 5780 5782 5783 5782 5781 5782 5781 5780 5781 5779 5778 5778 5777 5777 5777 5776 5775 5774 5774
5769 5766 5767 5770 5771 5776 5776 5775 5773 5771 5770 5771 5770 5770 5772 5771 5770 5770 5771 5771 5770 5771 5770 5770 5770 5769 5769 5768 5768 5768 5766 5765
5759 5761 5762 5765 5765 5766 5767 5766 5765 5763 5763 5762 5762 5763 5763 5762 5760 5760 5761 5760 5759 5760 5760 5761 5761 5760 5759 5759 5759 5759 5757 5755
5751 5754 5756 5758 5757 5755 5757 5758 5756 5754 5752 5753 5754 5753 5752 5752 5752 5751 5750 5750 5749 5749 5749 5749 5749 5750 5749 5749 5749 5748 5747 5746
5742 5745 5748 5748 5746 5746 5746 5747 5746 5744 5744 5744 5743 5743 5741 5739 5741 5741 5739 5738 5737 5737 5737 5736 5736 5736 5735 5736 5736 5737 5736 5735
5733 5735 5737 5737 5737 5737 5736 5735 5734 5733 5733 5732 5731 5729 5729 5729 5728 5728 5726 5725 5724 5723 5724 5724 5723 5722 5723 5723 5723 5722 5723 5722
5724 5722 5726 5727 5727 5727 5726 5722 5719 5719 5720 5718 5716 5715 5713 5715 5715 5714 5712 5711 5710 5710 5711 5710 5709 5708 5708 5708 5708 5707 5708 5709
5717 5713 5716 5718 5719 5718 5716 5713 5709 5706 5706 5706 5704 5701 5699 5699 5699 5699 5699 5698 5696 5695 5695 5695 5695 5694 5694 5694 5695 5695 5693 5695
5705 5702 5701 5699 5699 5700 5700 5698 5695 5693 5691 5690 5688 5686 5685 5685 5685 5684 5684 5683 5680 5678 5679 5679 5680 5680 5679 5680 5681 5681 5680 5680
5691 5688 5685 5687 5688 5686 5685 5681 5678 5678 5677 5674 5672 5670 5669 5669 5669 5669 5668 5668 5666 5664 5665 5665 5665 5666 5666 5666 5668 5667 5667 5666
5674 5675 5678 5678 5676 5674 5667 5664 5664 5663 5660 5658 5655 5654 5654 5652 5653 5652 5653 5651 5650 5650 5650 5650 5651 5651 5651 5652 5653 5653 5653 5651
5659 5662 5661 5660 5658 5653 5652 5651 5647 5644 5642 5641 5638 5636 5636 5635 5634 5634 5634 5634 5635 5635 5634 5635 5636 5636 5637 5637 5637 5639 5638 5637
5644 5649 5648 5646 5640 5638 5634 5629 5629 5626 5622 5620 5618 5614 5614 5614 5613 5612 5613 5614 5617 5618 5619 5619 5619 5621 5623 5623 5623 5624 5623 5623
5630 5632 5633 5632 5629 5623 5619 5614 5608 5602 5598 5596 5594 5590 5589 5588 5587 5587 5588 5592 5596 5599 5601 5604 5606 5607 5609 5609 5608 5609 5608 5608
5616 5615 5615 5612 5612 5607 5605 5599 5594 5586 5579 5576 5571 5569 5567 5567 5568 5569 5570 5573 5581 5582 5585 5589 5591 5593 5594 5594 5594 5595 5593 5594
5605 5603 5599 5599 5598 5593 5591 5586 5579 5574 5566 5561 5556 5552 5550 5550 5551 5551 5553 5557 5558 5559 5568 5571 5572 5576 5578 5579 5580 5581 5582 5583
5593 5590 5588 5587 5586 5583 5580 5576 5572 5566 5558 5550 5545 5539 5535 5534 5535 5537 5539 5542 5545 5546 5550 5555 5557 5562 5563 5565 5568 5570 5572 5573
Wind_Speed
40 39 36 36 34 31 29 30 33 35 35 39 42 42 37 32 32 34 35 36 36 35 33 31 29 30 30 29 27 27 28 28
39 41 41 32 30 31 29 30 34 37 39 42 44 43 39 34 33 34 36 38 37 35 32 29 29 29 31 32 31 29 30 29
34 38 45 43 27 32 33 33 35 38 41 43 44 43 40 36 36 38 37 38 38 35 32 31 31 30 31 32 31 30 31 30
32 33 37 39 38 27 31 33 36 40 43 44 45 44 41 40 41 41 38 39 41 38 35 33 33 34 33 33 33 32 33 33
40 41 40 37 38 38 30 34 36 39 41 43 45 45 44 44 45 44 42 42 43 42 41 37 35 38 38 38 37 36 37 37
43 42 38 32 36 38 32 35 39 40 41 43 44 45 45 49 49 48 48 48 47 46 45 45 44 40 40 41 42 43 42 42
45 46 44 39 39 39 40 35 40 44 44 44 44 48 48 48 51 52 52 52 52 51 50 50 51 51 48 45 44 46 47 46
48 49 49 45 41 43 43 41 43 43 50 51 49 50 53 53 53 56 55 56 56 57 56 54 53 54 55 53 51 50 51 51
48 54 53 47 44 45 46 44 52 62 59 57 52 53 58 58 59 59 59 60 61 60 58 58 57 56 56 57 58 57 54 52
48 50 58 52 54 49 45 58 49 45 48 50 52 53 55 53 54 59 64 62 60 60 61 61 61 60 60 60 57 57 60 56
54 56 59 60 61 62 61 49 48 49 50 52 51 51 55 58 58 56 53 56 57 64 64 65 63 63 63 63 61 60 62 58
58 62 62 58 48 45 45 53 57 57 58 57 56 54 52 54 55 58 57 55 55 57 56 60 68 67 66 66 64 64 61 56
54 56 58 52 49 56 64 62 62 66 66 66 64 61 58 57 56 55 57 59 60 60 58 57 56 59 63 61 61 62 60 59
66 66 68 71 71 71 69 72 72 70 68 66 66 67 65 64 63 60 59 59 58 58 59 58 56 55 54 58 58 62 60 55
68 67 69 72 68 71 75 73 68 67 66 67 67 68 67 68 69 68 66 66 63 61 59 58 57 53 49 49 52 53 56 55
64 64 63 59 64 67 64 64 67 70 70 72 74 75 72 65 60 59 60 60 60 60 59 56 53 53 48 50 53 54 56 51
62 62 55 53 58 57 59 63 66 65 62 58 60 62 60 55 49 50 55 51 55 54 52 51 57 56 47 49 51 53 46 40
48 46 49 47 43 45 47 48 49 46 47 47 47 53 52 50 48 49 49 51 60 53 50 55 47 52 57 50 42 37 35 35
50 51 45 44 40 38 41 37 35 36 37 38 42 45 46 43 45 47 46 47 50 63 49 48 48 54 50 37 30 29 33 35
Wind_Direction
289 280 275 272 274 273 273 270 270 272 275 279 275 274 274 273 274 275 277 281 289 294 290 283 279 274 272 270 271 274 274 274
279 279 271 265 270 273 269 264 265 268 272 272 272 273 273 273 274 274 278 283 288 288 286 276 272 272 270 269 268 270 270 272
282 281 278 276 270 269 267 260 257 258 261 264 267 269 270 273 272 273 277 284 287 285 281 277 270 269 270 270 268 269 269 272
265 270 271 278 281 268 266 263 256 256 260 264 265 264 266 269 272 275 280 283 286 286 280 278 273 273 275 274 272 272 272 271
266 272 278 282 283 285 269 265 263 262 264 266 266 268 270 271 274 276 279 282 282 284 283 279 275 273 275 277 276 275 274 276
270 279 277 283 282 283 282 269 269 267 265 266 271 270 269 272 274 277 281 282 281 281 282 282 280 274 273 274 275 277 280 281
258 273 277 272 273 274 276 269 265 266 273 275 275 273 270 271 273 274 276 278 278 278 277 275 277 278 275 274 275 278 280 280
257 261 267 271 267 275 274 271 259 271 280 277 273 272 271 270 270 270 271 271 272 272 272 273 274 275 277 278 277 276 277 280
265 260 260 262 265 269 263 265 279 287 283 280 276 272 269 268 269 268 269 269 269 270 272 271 271 272 274 275 276 278 279 283
264 268 267 268 271 265 258 275 281 279 278 276 276 273 271 270 269 266 266 268 269 268 268 268 268 269 271 273 278 280 282 286
266 269 267 267 269 272 276 273 279 282 282 279 277 273 271 268 270 271 271 274 274 267 266 267 267 267 269 271 275 279 284 288
262 265 269 276 271 255 259 272 280 283 283 280 278 276 274 271 265 264 265 270 273 275 275 275 271 271 272 274 275 278 281 283
263 264 265 261 256 265 279 287 284 283 283 284 283 279 275 272 270 267 266 267 270 270 272 278 279 275 275 276 276 274 278 284
275 269 265 266 272 281 282 281 284 285 284 282 279 276 273 272 271 269 267 266 266 268 270 273 277 279 278 278 278 279 281 279
276 272 271 275 282 282 282 287 286 284 281 280 279 277 275 273 271 268 265 264 265 265 266 269 272 276 277 279 278 277 278 278
280 278 280 287 285 285 287 286 288 290 288 284 281 278 275 269 262 260 257 259 260 258 259 263 272 276 272 273 274 276 276 271
288 292 295 287 287 287 286 288 288 284 284 288 287 280 275 274 268 258 256 250 253 261 260 256 264 266 266 270 273 274 273 264
285 288 291 286 286 296 296 292 296 306 305 300 293 282 276 273 264 253 253 255 248 252 248 256 267 261 273 271 275 269 263 257
282 284 286 287 296 295 293 297 311 319 323 319 304 295 282 270 264 257 258 251 247 250 254 252 262 260 271 267 255 257 256 246